CLUSTER II-FM5 (RUMBA)

Last updated on Fri Oct 24 2025 00:03:39 GMT+0000 (Coordinated Universal Time)

1 26463U 00045A 25293.57799104 .00003729 00000+0 00000+0 0 9992 2 26463 145.9975 98.1036 9083512 317.9304 1.7530 0.45057109 19103

Satellite not in orbit

CLUSTER II-FM5 (RUMBA)